This is the latest recevied weather packets stored in our database for station/object DPX206-15. If no packets are shown the sender has not sent any weather packets the latest 10 day(s).
| Time | Temp. | Humidity | Pressure | Rain* | Wind** | Luminosity | Snow |
|---|---|---|---|---|---|---|---|
| 1777417801 | 3.89° C | 67% | 1027.5 hPa | 0 mm | - | 0 W/m² | - |
| 1777417050 | 3.89° C | 66% | 1027.6 hPa | 0 mm | - | 0 W/m² | - |
| 1777416300 | 4.44° C | 66% | 1027.3 hPa | 0 mm | - | 0 W/m² | - |
| 1777415550 | 4.44° C | 65% | 1027.1 hPa | 0 mm | - | 0 W/m² | - |
| 1777414800 | 5° C | 63% | 1027.3 hPa | 0 mm | - | 0 W/m² | - |
| 1777414050 | 5° C | 62% | 1027.3 hPa | 0 mm | - | 0 W/m² | - |
| 1777413299 | 5.56° C | 60% | 1027.1 hPa | 0 mm | - | 0 W/m² | - |
| 1777412549 | 5.56° C | 61% | 1027.1 hPa | 0 mm | - | 0 W/m² | - |
| 1777411799 | 5.56° C | 60% | 1027.3 hPa | 0 mm | - | 0 W/m² | - |
| 1777411049 | 5.56° C | 59% | 1026.9 hPa | 0 mm | - | 0 W/m² | - |
| 1777410299 | 5.56° C | 59% | 1026.8 hPa | 0 mm | - | 0 W/m² | - |
| 1777409548 | 6.11° C | 58% | 1026.9 hPa | 0 mm | - | 0 W/m² | - |
| 1777408798 | 6.67° C | 56% | 1026.7 hPa | 0 mm | - | 0 W/m² | - |
| 1777408048 | 7.22° C | 55% | 1026.6 hPa | 0 mm | - | 0 W/m² | - |
| 1777407298 | 7.78° C | 53% | 1026.6 hPa | 0 mm | - | 0 W/m² | - |
| 1777406547 | 8.33° C | 50% | 1026.5 hPa | 0 mm | - | 0 W/m² | - |
| 1777405797 | 8.89° C | 48% | 1026.2 hPa | 0 mm | - | 0 W/m² | - |
| 1777405047 | 9.44° C | 47% | 1026.3 hPa | 0 mm | - | 0 W/m² | - |
| 1777404297 | 9.44° C | 48% | 1026.3 hPa | 0 mm | - | 0 W/m² | - |
| 1777403546 | 9.44° C | 48% | 1026.4 hPa | 0 mm | - | 0 W/m² | - |
| 1777402796 | 10° C | 45% | 1026 hPa | 0 mm | - | 0 W/m² | - |
| 1777402045 | 10° C | 44% | 1025.9 hPa | 0 mm | - | 0 W/m² | - |
| 1777401295 | 10.56° C | 42% | 1026 hPa | 0 mm | - | 1 W/m² | - |
| 1777400545 | 11.11° C | 41% | 1025.8 hPa | 0 mm | - | 4 W/m² | - |
| 1777399794 | 11.67° C | 39% | 1025.7 hPa | 0 mm | - | 9 W/m² | - |
* Rain latest hour (hover to see other rain measurements)
** Current wind speed in m/s (hover to see current wind gust speed)